Regional Weather Roundup
Issued by NWS Cleveland, OH

Home | Current Version | Previous Version | Text Only | Print | Product List | Glossary Off
Versions: 1 2 3 4 5 6 7 8 9 10 11 12 13 14 15 16 17 18 19 20 21 22 23 24 25 26 27 28 29 30 31 32 33 34 35 36 37 38 39 40 41 42 43 44 45 46 47 48 49 50

000
ASUS41 KCLE 050510
RWRCLE
OHIO REGIONAL WEATHER ROUNDUP
NATIONAL WEATHER SERVICE CLEVELAND, OH
100 AM EDT THU MAY 05 2016

NOTE: "FAIR" INDICATES FEW OR NO CLOUDS BELOW 12,000 FEET WITH NO
SIGNIFICANT WEATHER AND/OR OBSTRUCTIONS TO VISIBILITY.

OHZ001>008-015>018-024>027-034-035-043-044-050600-
   NORTHWEST OHIO

CITY           SKY/WX    TMP DP  RH WIND       PRES   REMARKS
DEFIANCE       CLOUDY    42  36  79 W5        29.73S
FINDLAY        CLOUDY    44  37  76 NW6       29.72R
TOLEDO EXPRESS CLOUDY    44  39  82 NW6       29.73R
TOLEDO EXEC    CLOUDY    45  42  89 NW6       29.73S FOG
LIMA           CLOUDY    41  38  89 W5        29.73R
$$

OHZ009>014-019>023-028>033-038-089-050600-
   NORTHEAST OHIO

CITY           SKY/WX    TMP DP  RH WIND       PRES   REMARKS
CLE-HOPKINS    LGT RAIN  50  48  93 W6        29.72S
CLE-LAKEFRONT  CLOUDY    50  48  93 W10       29.69S
CUY CO. ARPT   NOT AVBL
LORAIN-ELYRIA  LGT RAIN  47  44  90 NW6       29.71S
ASHTABULA      PTCLDY    47  42  83 W3        29.68S
AKRON-CANTON   CLOUDY    49  47  93 NW6       29.68S FOG
WOOSTER        LGT RAIN  46  44  93 NW7       29.70S
MANSFIELD      CLOUDY    44  42  93 W6        29.70S
YOUNGSTOWN     LGT RAIN  49  45  86 CALM      29.68S
$$

OHZ042-051>053-060>062-070>072-077>081-050600-
  SOUTHWEST OHIO

CITY           SKY/WX    TMP DP  RH WIND       PRES   REMARKS
CINC-COVINGTON LGT RAIN  45  36  70 W6        29.75F
CINC-LUNKEN    CLOUDY    47  37  68 W8        29.77S
HAMILTON       CLOUDY    46  36  68 NW10      29.76F
DAYTON         CLOUDY    42  34  73 NW5       29.74S
WRIGHT-PAT AFB CLOUDY    44  36  74 NW10      29.73S
DAYTON GENERAL CLOUDY    44  34  67 NW8       29.73S
WILMINGTON     CLEAR     42  36  79 W7        29.72S
$$

OHZ036-037-039>041-045>050-054>059-063>069-073>076-082>088-050600-
  CENTRAL AND SOUTHEAST OHIO

CITY           SKY/WX    TMP DP  RH WIND       PRES   REMARKS
COLUMBUS       MOCLDY    44  36  73 NW6       29.72S
OSU AIRPORT    CLEAR     42  34  73 CALM      29.72R
BOLTON FIELD   MOCLDY    44  37  75 NW3       29.72S
RICKENBACK AFB CLOUDY    44  36  72 N6        29.72S
NEWARK         CLOUDY    46  40  79 NW5       29.71S
MARION         MOCLDY    43  39  86 NW3       29.72S
LANCASTER      MOCLDY    44  37  76 NW3       29.72S
ZANESVILLE     LGT RAIN  49  44  83 NW6       29.70S
NEW PHILLY     LGT RAIN  48  46  93 NW6       29.69S
$$



USA.gov is the U.S. government's official web portal to all federal, state and local government web resources and services.